Weather History for Decatur, IL

Change the Weather History Date:

Wednesday, July 2, 2014

  Actual Average Record
Temperature  
Mean Temperature 67 °F 76 °F  
Max Temperature 73 °F 86 °F 102 °F (2012)
Min Temperature 60 °F 66 °F 46 °F (2001)
Degree Days  
Heating Degree Days 0 0  
Month to date heating degree days 0 0  
Since 1 June heating degree days 1 17  
Since 1 July heating degree days 0 0  
Cooling Degree Days 2 11  
Month to date cooling degree days 13 22  
Year to date cooling degree days 434 338  
Since 1 June cooling degree days 289 251  
Growing Degree Days 16 (Base 50)    
Moisture  
Dew Point 58 °F    
Average Humidity 71    
Maximum Humidity 84    
Minimum Humidity 57    
Precipitation  
Precipitation T in 0.13 in 1.36 in (2008)
Month to date precipitation 0.33 0.25  
Year to date precipitation 16.89 19.05  
Sea Level Pressure  
Sea Level Pressure 29.97 in    
Wind  
Wind Speed 10 mph (WNW)    
Max Wind Speed 17 mph    
Max Gust Speed 22 mph    
Visibility 10 miles    
Events      
T = Trace of Precipitation, MM = Missing Value Source: NWS Daily Summary

Daily Weather History Graph

Daily Weather History Graph

Search for Another Location

Airport:

Trip Planner

Search our weather history database for the weather conditions in past years. The results will help you decide how hot, cold, wet, or windy it might be!

Date:

Astronomy

Jul. 02, 2014 Rise Set
Actual Time 5:31 AM CDT 8:27 PM CDT
Civil Twilight 4:58 AM CDT 9:00 PM CDT
Nautical Twilight 4:17 AM CDT 9:41 PM CDT
Astronomical Twilight 3:30 AM CDT 10:28 PM CDT
Moon 10:34 AM CDT (7/2) 11:21 PM CDT (7/2)
Length of Visible Light 16h 01m
Length of Day
14h 56m
Waxing Crescent, 24% of the Moon is Illuminated
Jul 2
Waxing Crescent
Jul 5
First Quarter
Jul 12
Full
Jul 18
Last Quarter
Jul 26
New

Hourly Weather History & Observations

Time (CDT) Temp. Dew Point Humidity Pressure Visibility Wind Dir Wind Speed Gust Speed Precip Events Conditions
12:54 AM 72.0 °F 62.1 °F 71% 29.86 in 10.0 mi WSW 8.1 mph - N/A   Clear
1:54 AM 72.0 °F 63.0 °F 73% 29.86 in 10.0 mi West 9.2 mph - N/A   Scattered Clouds
2:54 AM 70.0 °F 62.1 °F 76% 29.87 in 10.0 mi WNW 10.4 mph - N/A   Mostly Cloudy
3:54 AM 68.0 °F 61.0 °F 78% 29.88 in 10.0 mi West 5.8 mph - N/A   Clear
4:54 AM 66.9 °F 60.1 °F 79% 29.89 in 10.0 mi WNW 5.8 mph - N/A   Clear
5:54 AM 68.0 °F 59.0 °F 73% 29.90 in 10.0 mi West 5.8 mph - N/A   Overcast
6:54 AM 66.9 °F 59.0 °F 76% 29.91 in 10.0 mi WNW 11.5 mph - N/A   Mostly Cloudy
7:54 AM 69.1 °F 59.0 °F 70% 29.92 in 10.0 mi West 10.4 mph - N/A   Partly Cloudy
8:54 AM 70.0 °F 60.1 °F 71% 29.93 in 10.0 mi NW 11.5 mph - N/A   Scattered Clouds
9:54 AM 71.1 °F 57.9 °F 63% 29.94 in 10.0 mi Variable 5.8 mph - N/A   Scattered Clouds
10:54 AM 72.0 °F 55.9 °F 57% 29.96 in 10.0 mi West 10.4 mph - N/A   Mostly Cloudy
11:54 AM 70.0 °F 57.0 °F 63% 29.97 in 10.0 mi West 8.1 mph - N/A   Overcast
12:54 PM 70.0 °F 57.0 °F 63% 30.00 in 10.0 mi West 12.7 mph 18.4 mph N/A   Overcast
1:54 PM 66.0 °F 57.0 °F 73% 30.01 in 10.0 mi West 13.8 mph 21.9 mph N/A   Overcast
2:54 PM 66.9 °F 57.0 °F 70% 30.01 in 10.0 mi NW 12.7 mph - N/A   Overcast
3:44 PM 68.0 °F 57.0 °F 68% 30.02 in 10.0 mi West 15.0 mph 21.9 mph N/A   Overcast
4:54 PM 66.0 °F 55.9 °F 70% 30.02 in 10.0 mi WNW 13.8 mph 20.7 mph N/A   Overcast
5:54 PM 66.0 °F 55.0 °F 68% 30.03 in 10.0 mi WNW 11.5 mph - 0.00 in   Overcast
6:54 PM 64.9 °F 55.0 °F 70% 30.03 in 10.0 mi WSW 9.2 mph - N/A   Overcast
7:54 PM 64.0 °F 55.9 °F 75% 30.03 in 10.0 mi West 5.8 mph - N/A   Overcast
8:54 PM 64.0 °F 55.9 °F 75% 30.03 in 10.0 mi NW 9.2 mph - N/A   Overcast
9:54 PM 62.1 °F 55.9 °F 80% 30.05 in 10.0 mi NW 10.4 mph - N/A   Overcast
10:54 PM 61.0 °F 55.9 °F 83% 30.05 in 10.0 mi WNW 5.8 mph - N/A   Overcast
11:54 PM 60.1 °F 55.9 °F 86% 30.06 in 10.0 mi WNW 8.1 mph - N/A   Partly Cloudy